Regional Weather Roundup
Issued by NWS Grand Forks, ND

Home | Current Version | Previous Version | Graphics & Text | Print | Product List | Glossary On
Versions: 1 2 3 4 5 6 7 8 9 10 11 12 13 14 15 16 17 18 19 20 21 22 23 24 25 26 27 28 29 30 31 32 33 34 35 36 37 38 39 40 41 42 43 44 45 46 47 48 49 50
000
ASUS43 KFGF 092031
RWRFGF
PRAIRIE TO PINES  WEATHER ROUNDUP
NATIONAL WEATHER SERVICE EASTERN NORTH DAKOTA/GRAND FORKS ND
200 PM CST TUE FEB 09 2016

 **SATELLITE DATA USED TO AUGMENT SKY COVER AT AUTOMATED STATIONS**
 *****  WEATHER ACROSS EASTERN NORTH DAKOTA  *****

CITY           SKY/WX    TMP DP  RH WIND       PRES   REMARKS
GRAND FORKS    CLOUDY    12   3  67 N16       30.29F WCI  -5
GRAND FRKS AFB CLOUDY    10   3  72 N13       30.27F WCI  -5
DEVILS LAKE    CLOUDY    16   9  74 NE8       30.22F WCI   5
FARGO          CLOUDY    14   5  67 N14       30.26F WCI  -1
WAHPETON ARPT  CLOUDY    16   7  67 N12G18    30.25S WCI   3
$$

 ***** WEATHER ACROSS CENTRAL AND WESTERN NORTH DAKOTA  *****

CITY           SKY/WX    TMP DP  RH WIND       PRES   REMARKS
BISMARCK       PTSUNNY   40  14  34 W10       30.17F
MINOT          CLOUDY    39  16  39 NW7       30.14F
JAMESTOWN      CLOUDY    23   8  52 NE7       30.20F WCI  15
MINOT AFB      MOSUNNY   38  19  46 N1        30.14F
GARRISON         N/A     36  18  48 NW7       30.14F
WILLISTON      CLOUDY    35  23  61 W3        30.16F
DICKINSON      CLOUDY    37  22  54 NW14      30.12F
HETTINGER      CLOUDY    42  22  44 NW16      30.15F
$$

 *****  OTHER AIRPORT OBSERVATIONS IN OUR AREA  *****

CITY           SKY/WX    TMP DP  RH WIND       PRES   REMARKS
WALHALLA       FAIR       9   3  78 N10       30.30F WCI  -6
GRAFTON AIRPOR MOCLDY     9   1  72 N14       30.31F WCI  -8
VALLEY CITY AR CLOUDY    19   9  63 NE8       30.23F WCI   9
CANDO          FAIR      16  10  79 E9        30.25F WCI   4
CAVALIER APRT  FAIR       7   1  78 N10       30.30F WCI  -8
GWINNER        CLOUDY    23  12  63 N9        30.24S WCI  13
SHEYENNE NWR     N/A     17   7  64 N7        29.95S WCI   8
ROLLA          MOCLDY    16   9  73 E10       30.21R WCI   3
 ***** THE ABOVE OBSERVATIONS ARE NON NWS ARE NOT QUALITY
       CONTROLLED AND MAY MIS-REPORT RAIN FOR SNOW...
$$

  *****  WEATHER ACROSS NORTHERN MINNESOTA  *****

CITY           SKY/WX    TMP DP  RH WIND       PRES   REMARKS
FLAG ISLAND    SUNNY      7  -2  66 NW15      30.21S WCI -11
WARROAD        SUNNY      9   0  66 W10       30.21F WCI  -6
ROSEAU         SUNNY      9   0  66 W8        30.22F WCI  -4
HALLOCK        SUNNY      7   0  72 NW13      30.29F WCI  -9
THF RVR FALLS  SUNNY      9   0  66 NW12      30.23F WCI  -6
BAUDETTE       SUNNY      4  -5  66 NW14      30.18S WCI -14
WASKISH        SUNNY      9  -2  61 NW10      30.17S WCI  -6
CROOKSTON      SUNNY     10   3  72 N15       30.27F WCI  -6
STEPHEN NDAWN    N/A      7   1  78 N12         N/A  WCI  -9
GREENBUSH NDAW   N/A      5  -2  72 N8          N/A  WCI  -8
$$
  *****  WEATHER ACROSS CENTRAL AND WEST MINNESOTA  *****

CITY           SKY/WX    TMP DP  RH WIND       PRES   REMARKS
FOSSTON        SUNNY     12   0  57 NW13      30.21S WCI  -3
BEMIDJI        SUNNY      7  -2  65 NW10      30.15F WCI  -7
PARK RAPIDS    SUNNY     12  -1  56 NW16      30.13F WCI  -5
ELBOW LAKE     CLOUDY    13   5  69 NW15G22   30.19F HAZE    WCI  -3
WADENA         SUNNY     12   3  67 NW10      30.14F WCI  -1
DETROIT LAKES  SUNNY     10   3  72 N14G21    30.20S WCI  -5
MOORHEAD       CLOUDY    12   3  67 N16       30.26S WCI  -4
FERGUS FALLS   CLOUDY    12   5  73 N17       30.24F WCI  -5
MORRIS MN      CLOUDY    16   7  67 NW21      30.19S WCI  -2
STAPLES        SUNNY     12   0  57 NW14      30.13F WCI  -3
$$
  *****  WEATHER ELSEWHERE ACROSS MINNESOTA  *****

CITY           SKY/WX    TMP DP  RH WIND       PRES   REMARKS
DULUTH         SUNNY      9  -5  53 NW21G26   29.99F WCI -11
INTRNTL FALLS  SUNNY      5  -6  60 NW14      30.13F WCI -12
ELY            PTSUNNY    5  -2  72 NW13G18   30.02S WCI -12
CLOQUET        SUNNY     10  -6  48 NW17G25   30.03R WCI  -7
WHEATON        CLOUDY    18  10  73 NW14      30.26S WCI   4
BRAINERD       SUNNY     10  -2  58 N15       30.12F WCI  -7
HIBBING        SUNNY      5  -4  66 NW16      30.06F WCI -14
ALEXANDRIA     SUNNY     14   1  56 N16       30.15F WCI  -2
SAINT CLOUD    SUNNY     14   1  56 NW14G22   30.13F WCI  -1
MINNEAPOLIS    SUNNY     16   0  49 NW18G30   30.08F WCI   0
$$

  *****  WEATHER ACROSS SOUTH DAKOTA  *****

CITY           SKY/WX    TMP DP  RH WIND       PRES   REMARKS
SIOUX FALLS    PTSUNNY   20   8  60 NW15      30.20F WCI   6
BROOKINGS      CLOUDY    19   9  65 NW15      30.17F WCI   5
WATERTOWN      CLOUDY    21   8  57 NW17      30.18F WCI   7
HURON          CLOUDY    27  11  51 N9        30.24F WCI  18
SISSETON         N/A     19   8  62 N14       30.23F WCI   6
ABERDEEN       CLOUDY    31  11  43 VRB6      30.22F
MITCHELL       CLOUDY    28  12  51 N13       30.25F WCI  17
PIERRE         PTSUNNY   32  12  43 W12       30.21F WCI  23
MOBRIDGE       PTSUNNY   35  14  42 SW12      30.16F
RAPID CITY     CLOUDY    51  29  42 N20G33    30.14F
$$

  *****  SOME WEATHER IN NEARBY STATES *****

CITY           SKY/WX    TMP DP  RH WIND       PRES   REMARKS
GLASGOW MT     SUNNY    N/A N/A N/A W9        30.14F
GREAT FALLS MT SUNNY     61  27  27 SW20      30.21F
CHEYENNE WY    SUNNY     46  23  40 NW20G30   30.28F
SCOTTSBLUFF NE SUNNY     50  32  50 NW18G30   30.23F
OMAHA NE       MOSUNNY   21   9  59 NW17      30.24F WCI   7
DES MOINES IA  MOSUNNY   17   6  62 NW18G26   30.12F WCI   1
DAVENPORT IA   PTSUNNY   17   7  64 NW21G29   29.96F WCI   0
CHICAGO IL     FLURRIES  18   8  65 NW16G22   29.83R WCI   3
EAU CLAIRE WI  SUNNY     11  -3  53 NW15      30.00F WCI  -5
LA CROSSE WI   SUNNY     14   0  53 N16       30.00F WCI  -2
$$

  *****  SOME NATIONAL WEATHER *****

CITY           SKY/WX    TMP DP  RH WIND       PRES   REMARKS
LA GUARDIA NY  PTSUNNY   34  21  60 NE6       29.57S
RALEIGH NC     CLOUDY    41  20  43 W9        29.63R
ATLANTA GA     FLURRIES  32  22  66 NW20G33   29.86R WCI  20
NEW ORLEANS LA MOSUNNY   57  12  17 NW23G36   30.09F
OKLAHOMA CITY  MOSUNNY   51  21  30 N20G28    30.26S
ALBUQUERQUE NM SUNNY     55  21  26 VRB7      30.37F
SALT LAKE CITY SUNNY     38  29  70 NW7       30.56F HAZE
LOS ANGELES CA MOSUNNY   86  23  10 NE3       30.12F
BOISE ID       MOSUNNY   37  29  72 CALM      30.56F
SEATTLE WA     MOSUNNY   55  46  71 CALM      30.18F
$$

*** WEATHER ACROSS MANITOBA...SASKATCHEWAN AND ONTARIO ***
                ***ONTARIO***

CITY           SKY/WX    TMP DP  RH WIND       PRES   REMARKS
GERALDTON      LGT SNOW   1  -6  71 N16G23    29.92R DRFTSNOWWCI -18
THUNDER BAY    MOSUNNY    7  -4  61 N17G28    30.01S WCI -12
SIOUX LOOKOUT  PTSUNNY    1  -9  60 N13G20    30.08F WCI -16
TORONTO        FLURRIES  34  30  86 SE6       29.46S
BIG TROUT LK   MOSUNNY  -11 -20  64 NW13      30.19F WCI -32
PICKLE LAKE    CRYSTALS  -6 -17  59 N10G18    30.07F WCI -23
DRYDEN         MOSUNNY    1  -8  66 NW9       30.10F WCI -14
KENORA         MOSUNNY    3  -6  66 NW10      30.17S WCI -12
$$
                *** MANITOBA***

CITY           SKY/WX    TMP DP  RH WIND       PRES   REMARKS
BRANDON        FLURRIES  10   5  79 E12       30.27F WCI  -4
DAUPHIN        CLOUDY     7   0  72 E8        30.32F WCI  -6
ISLAND LAKE    SUNNY    -11 -18  70 W6        30.33F WCI -25
PILOT MOUND      N/A      9   3  78 NE7         N/A  WCI  -3
THE PAS        PTSUNNY   -6 -13  71 SE3       30.35F
THOMPSON       MOSUNNY  -11 -18  70 SW5       30.39F WCI -23
WINNIPEG       MOSUNNY    1  -6  71 N10       30.33F WCI -14
LYNN LAKE      CLOUDY   -11 -17  77 E6        30.29F WCI -25
CHURCHILL      CRYSTALS -24 -31  69 W10       30.41F WCI -46
GILLAM         SUNNY    -15 -24  64 W8        30.38F WCI -32
$$
                ***SASKATCHEWAN***

CITY           SKY/WX    TMP DP  RH WIND       PRES   REMARKS
ESTEVAN        CLOUDY    34  21  60 W3        30.16F
KINDERSLEY     MOSUNNY   37  30  75 SW7       30.05F
LLOYDMINSTER   PTSUNNY   39  30  70 W6        29.99F
PRINCE ALBERT  LGT SNOW  14  10  85 E9        30.17F DRFTSNOWWCI   2
REGINA         FLURRIES  28  23  80 SE8       30.14F WCI  20
YORKTON        MOSUNNY   18  12  79 SE6       30.20F WCI   9
N. BATTLEFORD  SUNNY     28  28 100 SE15      30.06F WCI  17
LA RONGE       CLOUDY     9   1  72 E10       30.19F WCI  -6
SASKATOON      CLOUDY    30  27  86 SE10      30.11F WCI  21
SWIFT CURRENT  NOT AVBL
$$
NOTE: THESE ARE AUTOMATED STATIONS WITH LIMITED QUALITY CONTROL
      "FAIR" INDICATES FEW OR NO CLOUDS BELOW 12,000 FEET WITH NO
      SIGNIFICANT WEATHER AND/OR OBSTRUCTIONS TO VISIBILITY.
      SKY/WX - SKY CONDITION AND SIGNIFICANT WEATHER.
      TMP - AIR TEMPERATURE.    DP   - DEWPOINT TEMPERATURE.
      RH  - RELATIVE HUMIDITY.  PRES - PRESSURE.
      HX  - HEAT INDEX.         WCI  - WIND CHILL INDEX.
$



USA.gov is the U.S. government's official web portal to all federal, state and local government web resources and services.